Theta_e
304 305 307 307 307 308 308 308 308 308 308 309 310 310 311 311 311 319 321 318 318 317 314 318 317 318 319 322 324 326 327 329 331 330 343 338 342 347 344 347 349 351 352 350 348
303 303 302 304 305 307 307 308 308 308 308 308 309 310 310 310 316 320 320 318 315 313 315 319 319 320 320 321 323 323 325 325 328 329 330 336 340 344 346 351 353 353 351 351 348
300 300 299 301 303 304 306 307 308 308 308 308 309 310 310 311 325 327 321 317 312 312 315 318 319 321 320 322 322 322 322 325 326 327 328 331 342 342 343 350 350 352 352 349 347
299 299 300 299 301 302 303 305 307 308 308 308 309 310 312 319 331 328 319 316 312 316 319 319 320 320 321 322 322 321 322 323 324 325 326 329 344 343 343 352 348 347 347 347 345
298 299 299 299 300 302 302 303 305 307 308 308 309 310 318 327 327 326 320 317 315 319 320 321 320 321 322 323 322 321 323 322 322 323 325 338 345 349 354 349 346 345 346 345 344
298 298 298 299 300 301 302 303 304 307 308 309 309 311 323 326 324 327 325 318 317 320 321 321 321 323 323 322 322 322 323 322 323 323 324 336 349 349 350 346 345 345 345 344 343
298 298 299 299 301 301 302 303 305 308 308 309 309 316 323 324 322 324 321 319 320 321 322 320 323 323 325 323 323 324 324 327 329 325 324 342 348 350 347 347 347 345 344 342 341
298 298 299 300 300 301 302 303 306 309 310 309 310 321 324 320 321 323 319 319 319 320 320 321 321 324 325 325 323 328 328 332 331 326 333 340 339 349 346 347 347 345 343 341 338
298 298 299 300 301 301 303 305 311 309 309 309 317 323 323 319 321 323 320 320 319 320 321 321 322 323 323 325 324 324 328 332 336 333 336 338 351 347 346 347 346 344 342 339 336
297 298 299 300 301 302 304 310 317 316 316 318 320 324 322 322 322 323 322 322 322 322 322 322 322 323 324 323 324 325 325 328 338 336 338 336 351 347 346 347 346 345 342 339 335
297 298 299 301 301 302 307 318 324 326 322 321 325 321 321 323 324 324 322 322 323 323 323 323 323 323 323 324 325 326 325 326 327 334 335 334 353 350 346 346 346 346 342 338 333
297 298 299 301 302 305 310 319 318 319 321 323 321 323 321 323 323 324 323 324 324 324 323 324 323 324 323 324 324 326 326 327 334 339 337 333 351 349 346 347 346 345 342 338 332
297 298 299 301 304 316 314 313 315 318 321 321 321 323 323 323 324 325 324 324 325 324 323 324 324 323 323 323 323 325 326 333 332 335 335 336 342 349 345 345 344 343 341 337 333
297 298 299 301 311 313 314 317 317 318 324 324 322 321 323 324 324 324 324 324 324 324 324 323 324 323 323 323 323 325 326 331 337 333 333 336 336 348 345 346 345 344 341 337 334
297 298 300 304 309 313 314 315 317 321 326 324 322 322 322 324 325 324 324 324 324 323 323 323 323 323 323 324 323 325 327 329 333 332 336 341 334 333 345 348 345 343 341 337 334
297 299 303 312 313 314 313 312 316 324 325 323 324 323 322 322 323 324 324 323 323 323 323 325 325 324 324 325 324 329 328 331 332 332 334 331 335 343 344 344 343 342 341 337 334
298 301 306 310 315 313 315 317 323 325 323 322 326 324 323 322 324 325 324 323 324 324 325 324 326 325 326 325 325 329 331 333 332 329 327 330 331 328 340 336 334 343 342 338 335
299 309 313 312 313 313 315 321 325 325 324 325 326 326 324 324 324 324 325 325 323 324 325 325 327 325 325 325 327 327 329 329 328 333 330 329 328 333 336 334 334 336 342 339 335
303 313 314 321 319 315 317 319 324 325 324 322 323 327 326 324 324 324 324 325 324 325 326 327 328 325 324 325 327 327 327 328 329 330 330 328 327 332 331 333 335 335 339 340 335
307 316 320 319 321 317 316 316 319 322 322 323 325 325 327 326 325 326 325 324 324 324 326 328 329 326 325 325 325 327 327 327 327 329 330 326 328 330 331 332 334 334 338 338 335
311 318 321 319 319 322 317 316 317 318 322 323 323 324 328 329 326 325 326 325 324 325 324 327 330 329 326 326 325 325 326 328 329 332 333 328 329 329 329 329 331 332 334 336 334
313 317 318 320 326 324 321 318 315 317 320 321 322 326 327 328 329 327 326 326 324 324 324 325 330 332 328 326 326 329 327 328 330 331 332 333 330 328 328 326 327 327 333 333 333
313 317 320 321 325 326 324 321 319 319 319 321 322 322 325 327 331 328 326 325 324 324 325 326 329 333 331 331 328 328 327 330 333 332 334 333 329 327 327 326 326 327 329 331 332
316 317 321 322 323 326 327 326 324 321 321 319 321 323 324 326 327 332 328 326 325 324 331 331 330 331 334 332 328 329 327 328 329 333 330 329 328 328 328 328 328 329 329 330 331
313 315 319 316 321 321 325 326 324 324 324 324 322 322 324 327 327 329 331 328 328 329 328 332 331 330 329 329 329 328 327 327 328 329 332 329 328 327 326 326 326 330 330 330 330
309 310 309 309 312 316 318 324 326 324 326 326 328 325 329 328 328 329 333 334 330 328 330 332 333 330 331 328 328 330 332 327 327 327 328 327 328 327 329 327 325 330 330 330 329
305 306 309 310 311 313 317 323 323 323 324 325 326 326 328 330 331 331 331 333 335 331 334 334 333 332 330 329 327 329 326 327 328 328 329 330 329 328 328 326 327 330 330 329 329
Wind_Speed
20 19 18 18 18 18 17 16 16 14 12 13 12 12 13 15 17 12 13 11 12 17 9 10 12 14 15 15 14 12 13 14 14 9 17 12 11 12 8 13 13 10 19 17 14
21 21 20 19 18 18 18 18 17 16 14 12 12 13 14 17 18 22 22 14 12 14 13 14 13 13 13 15 11 14 13 19 16 9 7 10 8 14 12 15 16 17 17 15 12
22 22 23 21 20 19 19 18 18 17 16 12 11 12 14 13 15 3 8 12 13 17 15 14 14 11 16 11 14 15 18 14 8 3 6 10 9 14 17 12 12 17 16 12 14
23 24 24 24 22 20 20 19 19 18 17 12 10 11 13 8 3 8 4 10 12 12 14 13 13 14 15 14 14 15 16 12 6 8 11 9 10 15 10 20 15 14 14 14 12
25 25 26 26 24 22 21 20 20 19 17 12 9 9 7 9 9 5 4 15 12 10 15 12 14 14 14 11 12 14 10 9 6 6 12 13 12 8 18 16 14 12 11 12 11
26 27 27 27 27 24 23 22 22 20 16 10 8 7 9 15 4 5 8 16 14 14 14 13 11 12 12 10 11 14 7 10 11 13 15 14 17 10 12 16 15 13 12 10 9
28 28 28 28 27 27 26 25 23 18 12 8 7 4 12 13 2 5 11 14 14 14 9 14 6 6 9 8 8 4 10 9 11 16 12 19 15 9 14 16 15 13 11 10 10
29 29 29 29 29 28 28 27 19 13 7 6 6 6 9 4 7 9 11 10 9 10 8 4 9 13 11 2 8 13 18 13 12 14 12 17 18 15 13 15 14 13 12 11 10
31 31 30 30 28 29 29 21 9 4 1 6 5 8 14 8 11 13 13 12 13 11 7 4 10 14 12 10 13 13 14 19 14 16 15 21 14 14 14 15 14 12 12 11 11
33 32 32 31 28 30 26 9 6 1 2 5 12 8 14 13 17 15 15 9 12 12 10 12 9 12 12 14 14 16 17 16 16 15 15 19 12 16 14 13 14 14 12 11 11
34 34 34 31 32 27 16 7 6 7 13 14 6 12 6 9 8 13 17 15 14 13 15 16 13 14 18 19 20 14 15 5 4 19 17 21 16 16 14 14 15 14 13 11 11
35 35 34 31 33 13 5 6 9 7 10 17 20 16 8 7 13 17 20 16 15 16 17 13 15 16 16 14 15 14 9 8 10 4 12 17 17 15 16 18 16 15 13 13 12
36 37 35 32 19 1 10 16 9 8 8 16 21 21 18 15 15 17 19 20 17 17 17 16 11 18 8 11 10 16 15 12 11 10 12 9 13 16 17 17 16 15 14 13 14
38 39 35 34 7 13 11 3 3 8 6 12 12 12 20 16 20 19 23 20 16 17 15 14 15 8 12 18 16 16 16 10 11 12 10 11 14 16 17 19 19 19 16 15 14
39 38 33 18 15 8 6 6 8 5 6 10 12 9 15 22 10 22 20 22 18 14 13 15 13 11 15 14 17 18 12 8 10 14 12 28 11 15 24 20 21 19 18 15 14
42 37 28 5 8 13 13 9 8 7 11 9 9 12 16 23 21 18 16 19 13 16 16 18 10 16 16 15 17 7 11 10 12 14 13 17 12 15 19 18 17 18 18 16 15
42 31 15 8 5 6 8 9 7 10 6 10 10 14 18 20 23 17 21 19 16 15 16 15 12 16 4 11 8 11 11 9 12 13 13 9 8 7 12 1 1 20 20 18 16
43 18 9 10 7 7 8 10 15 9 18 3 5 13 17 18 23 20 20 18 21 17 13 15 16 16 14 13 11 17 14 13 5 13 9 4 7 5 11 7 7 6 21 19 17
37 10 6 2 6 7 7 12 16 15 11 12 12 12 15 18 16 17 22 20 21 21 17 14 15 19 18 16 16 15 18 8 10 8 9 9 9 10 11 9 8 4 10 17 17
25 12 1 8 6 9 9 16 18 23 6 10 15 13 17 19 19 20 18 20 20 21 18 8 9 14 12 8 10 12 11 8 9 13 13 8 6 3 8 12 10 7 11 15 16
9 5 5 4 4 7 11 15 18 25 6 12 17 18 11 17 21 20 21 15 20 20 19 14 10 14 14 15 16 12 11 8 5 6 10 6 5 6 3 4 7 12 12 16 16
9 5 5 2 7 8 12 16 15 14 16 13 18 14 10 14 18 20 20 19 13 19 19 18 7 10 17 20 15 13 17 18 10 15 5 10 8 8 4 5 2 3 14 16 16
7 7 5 4 7 10 9 13 12 13 16 18 16 17 16 10 13 15 17 19 17 19 18 14 10 12 9 9 10 12 10 8 18 4 12 10 0 6 7 3 4 5 8 13 15
5 5 2 4 6 9 15 12 15 10 12 17 17 16 18 15 14 11 16 8 9 12 7 7 14 17 14 17 16 19 19 15 9 7 11 11 3 12 11 9 10 8 9 13 14
3 4 4 6 6 11 13 15 17 12 7 12 11 16 19 18 18 18 17 9 8 8 8 11 17 20 21 12 16 12 16 17 16 15 14 12 11 11 12 8 7 10 11 14 15
6 5 7 13 13 13 13 14 17 13 6 13 15 8 11 11 16 16 11 15 15 14 15 13 14 20 20 21 13 18 35 11 15 14 13 10 12 9 9 2 7 6 12 14 15
11 7 6 10 11 9 6 11 10 12 14 11 5 12 14 8 14 13 13 14 19 15 16 15 13 17 19 20 13 18 15 13 11 11 8 10 9 6 3 4 5 8 10 13 14
Wind_Direction
10 7 2 355 352 349 347 343 342 336 313 302 300 298 299 300 299 278 252 245 214 247 214 220 219 223 231 243 241 261 267 256 241 226 151 138 144 53 94 106 65 65 83 122 144
6 4 359 354 348 344 341 338 336 334 323 301 296 296 300 304 294 265 247 249 241 215 212 217 214 212 223 226 219 235 240 252 261 195 242 150 177 141 129 116 105 104 108 119 156
3 359 357 352 347 342 337 333 329 326 325 304 294 295 301 310 276 168 177 225 213 205 230 234 246 215 230 214 211 222 245 245 273 300 245 145 144 152 149 136 137 125 110 126 88
359 357 354 350 345 341 336 330 325 320 319 304 289 294 302 280 305 101 156 182 172 184 231 222 229 220 237 218 223 238 229 273 271 213 250 152 127 195 132 92 113 124 134 126 134
359 355 351 348 344 339 335 328 321 314 312 297 278 292 309 229 254 122 179 180 183 208 225 216 221 223 230 216 209 226 224 219 242 171 211 118 141 82 92 103 118 128 127 121 117
359 355 350 347 345 338 333 328 320 312 305 283 260 281 252 253 78 132 164 172 196 210 220 227 226 234 273 227 207 196 214 201 185 203 201 140 117 126 133 139 137 138 130 124 117
357 353 349 345 341 337 333 328 319 309 296 264 241 254 268 257 196 164 175 189 205 214 236 226 286 224 244 222 213 213 203 198 212 200 191 132 173 120 159 152 146 145 139 132 125
354 351 347 343 340 335 332 326 318 307 282 231 222 243 270 148 211 188 185 193 198 214 258 193 235 253 250 130 189 215 215 197 176 179 161 185 183 144 172 163 162 154 149 137 115
351 349 345 341 340 334 330 323 325 328 209 183 209 228 257 160 204 199 192 176 177 188 200 210 235 232 215 220 209 214 215 217 151 185 167 208 121 158 181 182 164 167 160 145 126
349 347 342 339 339 333 328 323 268 247 169 229 260 262 242 215 189 187 196 213 186 188 195 215 218 224 230 219 214 201 232 201 173 181 182 202 104 156 184 202 177 178 168 156 145
349 345 342 337 336 332 327 284 219 191 216 237 219 230 154 159 139 198 191 209 206 198 216 201 222 215 214 222 249 302 201 195 256 160 206 210 144 160 182 204 191 187 173 164 142
349 345 340 336 333 328 313 286 340 338 289 243 245 239 253 198 198 202 184 201 207 218 214 212 230 245 238 216 243 257 245 195 85 146 234 222 158 173 185 206 207 190 179 169 148
347 345 339 335 332 319 298 288 296 319 265 265 225 222 218 213 231 195 193 209 203 225 209 237 226 210 225 227 224 231 236 143 220 185 225 244 222 192 195 207 203 213 190 177 174
345 342 339 335 306 325 293 355 280 316 274 209 199 230 212 199 228 237 191 217 228 233 229 229 247 223 209 218 215 212 228 167 138 198 211 212 245 150 210 207 206 202 194 180 183
342 339 333 331 299 284 2 312 307 262 275 127 143 127 193 196 168 202 189 216 230 215 231 221 228 200 213 221 194 252 163 212 183 225 226 200 249 223 184 204 204 199 194 185 180
339 338 324 330 234 269 293 277 271 236 245 169 166 198 203 207 222 173 189 221 230 240 227 258 203 200 217 215 199 133 175 194 218 243 231 252 217 144 185 194 190 192 190 188 176
336 335 300 268 281 316 304 225 228 244 108 214 194 193 204 196 207 171 193 200 218 217 210 223 203 224 261 184 170 197 187 210 217 220 237 114 226 313 131 212 51 172 185 180 177
335 333 299 242 278 286 250 227 242 269 238 63 297 185 209 201 210 187 202 207 218 213 200 208 196 186 207 201 183 211 200 255 262 267 163 190 236 111 83 76 65 332 169 167 179
338 322 267 294 258 239 232 229 227 250 296 299 244 246 211 218 211 201 209 215 199 215 242 202 216 176 199 217 207 201 233 296 301 237 270 263 110 145 141 119 123 151 167 164 178
327 297 145 318 215 221 231 244 259 260 303 292 266 253 233 209 210 210 204 217 214 208 240 274 158 172 181 230 239 278 211 211 233 259 260 265 332 55 149 150 149 155 173 167 173
289 278 93 77 178 228 237 241 240 263 234 271 271 269 271 276 212 221 222 212 219 199 215 242 252 180 162 208 206 207 237 242 314 209 280 288 86 136 123 91 160 170 179 171 177
299 285 113 197 252 236 245 240 259 285 281 225 271 294 286 295 295 221 232 228 196 224 210 219 244 224 202 216 233 294 209 222 225 229 303 312 296 93 108 134 177 317 151 166 180
302 289 155 238 267 279 252 245 277 267 264 265 241 255 262 263 275 266 256 225 183 217 206 210 217 232 207 171 212 241 247 183 229 328 217 243 242 152 141 178 209 250 162 166 177
287 295 195 240 266 305 302 299 278 237 248 267 265 263 264 262 267 268 246 162 187 208 57 257 215 231 197 218 204 207 229 213 221 227 250 258 317 205 181 206 205 194 176 169 175
308 22 14 301 326 334 295 286 292 285 284 242 250 258 256 257 256 250 247 178 187 153 214 219 217 238 244 220 275 209 227 193 217 221 242 269 290 324 325 348 350 163 174 164 180
335 342 345 289 280 284 276 262 276 282 312 284 340 288 316 276 257 271 344 294 196 192 219 210 229 238 239 244 239 201 208 209 223 234 261 274 286 320 58 357 267 167 175 172 183
357 326 280 292 273 279 313 356 322 328 291 262 346 316 284 320 324 302 306 301 294 196 205 201 224 236 242 240 239 248 245 234 237 239 251 275 319 3 239 257 196 177 176 182 178